• MPC Preparation (Info)

  • MPEC 2024-F29 : 2024 FP

    The following Minor Planet Electronic Circular may be linked-to from your own Web pages, but must not otherwise be redistributed electronically.

    A form allowing access to any MPEC is at the bottom of this page.


    Read MPEC 2024-F28 Read MPEC 2024-F30


    M.P.E.C. 2024-F29                                Issued 2024 March 19, 15:56 UT
    
         The Minor Planet Electronic Circulars contain information on unusual
             minor planets, routine data on comets and natural satellites,
             and occasional editorial announcements.  They are published
        on behalf of Division F of the International Astronomical Union by the
              Minor Planet Center, Smithsonian Astrophysical Observatory,
                              Cambridge, MA 02138, U.S.A.
    			  
                 Prepared using the Tamkin Foundation Computer Network
    
                                  MPC@CFA.HARVARD.EDU
                URL https://www.minorplanetcenter.net/    ISSN 1523-6714
    
                                     2024 FP                                 
    
    
    Observations:
         K24F00P  C2024 01 20.39396409 38 28.273+09 29 59.46         22.23GVEF029F51
         K24F00P  C2024 01 20.41127909 38 29.217+09 30 14.70         22.83GVEF029F51
         K24F00P  C2024 01 20.42296209 38 29.877+09 30 24.75         22.41GVEF029F51
         K24F00P  C2024 01 20.43473409 38 30.517+09 30 35.00         22.42GVEF029F51
         K24F00P  C2024 02 08.36209710 01 14.565+17 29 25.96         20.99GVEF029F52
         K24F00P  C2024 02 10.36784610 04 24.672+18 50 08.46         20.57GVEF029F52
         K24F00P  C2024 02 10.38152610 04 25.843+18 50 43.31         20.70GVEF029F52
         K24F00P  C2024 02 10.39514910 04 27.036+18 51 17.60         20.76GVEF029F52
         K24F00P  C2024 02 28.53621610 52 31.135+35 46 24.38         20.50GVEF029F52
         K24F00P  C2024 02 28.54796710 52 33.809+35 47 09.84         20.43GVEF029F52
         K24F00P  C2024 02 28.55973810 52 36.523+35 47 55.43         20.99GVEF029F52
         K24F00P  C2024 03 01.43682711 00 51.768+37 53 33.39         19.87GVEF029F52
         K24F00P* C2024 03 18.53025213 01 22.170+53 27 06.42         20.10wXEF029F52
         K24F00P  C2024 03 18.55907813 01 37.210+53 27 54.88         20.14wXEF029F52
         K24F00P  C2024 03 18.57344813 01 44.739+53 28 18.44         20.17wXEF029F52
         K24F00P  C2024 03 18.63806913 02 18.990+53 30 00.44         20.11GVEF029F52
         K24F00P  C2024 03 18.63889113 02 19.433+53 30 01.69         20.14GVEF029F52
         K24F00P KC2024 03 18.85122 13 04 27.46 +53 35 45.0                VEF029204
         K24F00P KC2024 03 18.87066 13 04 38.06 +53 36 21.6          20.0 GVEF029204
         K24F00P KC2024 03 19.28097413 08 25.45 +53 48 00.5          20.4 GVEF029H21
         K24F00P KC2024 03 19.28377113 08 26.92 +53 48 05.0          20.2 GVEF029H21
         K24F00P KC2024 03 19.28656813 08 28.40 +53 48 09.3          20.4 GVEF029H21
         K24F00P 1C2024 03 19.45078713 09 59.260+53 52 16.93               LEF029658
         K24F00P 1C2024 03 19.45459513 10 01.344+53 52 22.99               LEF029658
         K24F00P 1C2024 03 19.45746513 10 02.882+53 52 27.63               LEF029658
         K24F00P 1C2024 03 19.46032413 10 04.407+53 52 32.45               LEF029658
         K24F00P 1C2024 03 19.46317113 10 05.936+53 52 36.79               LEF029658
    
    Observer details:
    204 Schiaparelli Observatory.  Observer L. Buzzi.  0.84-m f/3.5 reflector +
        CMO.
    658 National Research Council of Canada.  Observers D. D. Balam, C. E. Spratt.
        Measurers D. D. Balam, D. W. E. Green.  1.82-m Reflector + CCD.
    F51 Pan-STARRS 1, Haleakala.  Observers J. Herman, T. Lowe, P. Minguez, A.
        Schultz, I. Smith.  Measurers K. Chambers, T. de Boer, J. Fairlamb, H.
        Gao, M. Huber, C.-C. Lin, E. Magnier, Y. Ramanjooloo, R. Wainscoat, R.
        Weryk.  1.8-m Ritchey-Chretien + CCD.
    F52 Pan-STARRS 2, Haleakala.  Observers J. Herman, T. Lowe, P. Minguez, A.
        Schultz, I. Smith.  Measurers K. Chambers, T. de Boer, J. Fairlamb, H.
        Gao, M. Huber, C.-C. Lin, E. Magnier, Y. Ramanjooloo, R. Wainscoat, R.
        Weryk.  1.8-m Ritchey-Chretien + CCD.
    H21 Astronomical Research Observatory, Westfield.  Observer R. Holmes.
        Measurers T. Linder, R. Holmes, L. Horn.  0.76-m f/3.0 astrograph + CCD.
    
    Orbital elements:
    2024 FP                                                  Earth MOID = 0.1473 AU
    Epoch 2024 Mar. 31.0 TT = JDT 2460400.5                 MPC                     
    M 359.00628              (2000.0)            P               Q                  
    n   0.33389650     Peri.   59.78176     -0.96358266     +0.24142030             
    a   2.0577604      Node   133.91426     -0.26505227     -0.91924588             
    e   0.4779732      Incl.    9.18580     +0.03543668     -0.31097147             
    P   2.95           H   22.91          G   0.15           U   6                  
    Residuals in seconds of arc
    240120 F51  0.3-  0.2-    240228 F52  0.2-  0.0     240318 204  0.0   0.0
    240120 F51  0.4-  0.1+    240228 F52  0.0   0.2-    240319 H21  0.1+  0.2+
    240120 F51  0.0   0.0     240301 F52  0.2+  0.1-    240319 H21  0.1-  0.1+
    240120 F51  0.1+  0.0     240318 F52  0.0   0.0     240319 H21  0.1-  0.1-
    240208 F52  0.0   0.0     240318 F52  0.1+  0.0     240319 658  0.2+  1.3-
    240210 F52  0.1+  0.2+    240318 F52  0.0   0.0     240319 658  0.5+  0.9-
    240210 F52  0.0   0.1+    240318 F52  0.0   0.0     240319 658  0.4+  0.5-
    240210 F52  0.4+  0.3-    240318 F52  0.1+  0.0     240319 658  0.2+  0.0
    240228 F52  0.2-  0.3+    240318 204  0.2+  0.0     240319 658  0.2+  0.1+
    
    Ephemeris:
    2024 FP                  a,e,i = 2.06, 0.48, 9                   q = 1.0742
    Date    TT    R. A. (2000) Decl.     Delta      r    Elong.  Phase     V
    2024 02 18    10 19 21.2 +24 58 11   0.2041  1.1876   166.4    11.3    20.5
    ...
    2024 03 04    11 13 29.7 +40 44 31   0.1598  1.1270   145.6    29.8    20.5
    ...
    2024 03 12    12 05 17.5 +48 53 08   0.1504  1.1031   133.8    40.6    20.6
    ...
    2024 03 18    12 56 28.9 +53 10 16   0.1490  1.0897   126.1    47.6    20.8
    2024 03 19    13 05 46.3 +53 40 05   0.1491  1.0878   124.9    48.6    20.8
    2024 03 20    13 15 11.3 +54 05 52   0.1494  1.0861   123.8    49.6    20.8
    ...
    2024 03 26    14 11 55.2 +55 15 57   0.1529  1.0781   118.1    54.7    21.0
    ...
    2024 04 03    15 17 30.1 +53 38 11   0.1615  1.0742   113.4    58.7    21.2
    ...
    2024 04 18    16 29 51.7 +45 38 01   0.1844  1.0879   112.4    58.6    21.5
    
    A. U. Tomatic                (C) Copyright 2024 MPC           M.P.E.C. 2024-F29
    


    Read MPEC 2024-F28 Read MPEC 2024-F30


    MPEC number:

    Enter an MPEC number in one of the following forms:

    • 1997-B01 (the full form)
    • J97B01 (the packed version of the full form)
    • B01 (the abbreviated form)